Regional Weather Roundup
Issued by NWS

Home | Current Version | Previous Version | Graphics & Text | Print | Product List | Glossary On
Versions: 1 2 3 4 5 6 7 8 9 10 11 12 13 14 15 16 17 18 19 20 21 22 23 24 25 26 27 28 29 30 31 32 33 34 35 36 37 38 39 40 41 42 43 44 45 46 47 48 49 50
000
ASUS43 KMKX 200100
RWRWI

WISCONSIN REGIONAL WEATHER ROUNDUP
NATIONAL WEATHER SERVICE MILWAUKEE/SULLIVAN WI
700 PM CST FRI JAN 19 2018

NOTE: "FAIR" INDICATES FEW OR NO CLOUDS BELOW 12,000 FEET WITH NO
SIGNIFICANT WEATHER AND/OR OBSTRUCTIONS TO VISIBILITY.

WIZ001-002-006>008-014>016-023>028-200200-
NORTHWEST WISCONSIN

CITY           SKY/WX    TMP DP  RH WIND       PRES   REMARKS
SUPERIOR ARPT  FAIR      38  28  67 SW10      29.48R WCI  31
ASHLAND        FAIR      39  26  59 SW13      29.47R WCI  31
HAYWARD        FAIR      29  22  75 SW5       29.52R WCI  24
SIREN          FAIR      36  27  71 SW7       29.55R WCI  30
CUMBERLAND     FAIR      28  23  80 SW5       29.54R WCI  23
RICE LAKE      FAIR      28  25  87 S3        29.57R
CHETEK         FAIR      30  27  86 CALM      29.56R
LADYSMITH      FAIR      33  26  74 SW5       29.56R WCI  28
EAU CLAIRE     NOT AVBL
MENOMONIE      FAIR      36  28  74 W5        29.58R WCI  32
NEW RICHMOND   FAIR      33  27  77 S5        29.57S WCI  29
OSCEOLA        FAIR      29  25  83 CALM      29.60R
$$

WIZ003>005-009-010-017-018-200200-
NORTH CENTRAL WISCONSIN

CITY           SKY/WX    TMP DP  RH WIND       PRES   REMARKS
MANITOWISH WTR FAIR      34  24  67 SW8       29.47R WCI  27
ARBOR VITAE    FAIR      37  27  69 W8        29.48R WCI  30
WOODRUFF       FAIR      37  27  69 W8        29.48R WCI  30
RHINELANDER    FAIR      34  26  72 W10       29.49R WCI  26
EAGLE RIVER    FAIR      32  24  73 SW7       29.45F WCI  25
LAND O LAKES   FAIR      33  26  74 SW3       29.46S
PHILLIPS       FAIR      32  25  75 SW6       29.50S WCI  27
TOMAHAWK       FAIR      32  25  74 CALM      29.51R
MEDFORD        FAIR      33  24  71 W8        29.52S WCI  26
MERRILL        FAIR      31  25  77 SW5       29.52S WCI  26
$$

WIZ029-030-035-036-043>047-200200-
CENTRAL WISCONSIN

CITY           SKY/WX    TMP DP  RH WIND       PRES   REMARKS
WAUSAU         FAIR      36  25  64 SW9       29.52R WCI  29
MOSINEE        NOT AVBL
MARSHFIELD     FAIR      35  26  69 W10       29.54R WCI  27
STEVENS POINT  FAIR      34  25  67 SW8       29.55R WCI  28
WAUPACA        FAIR      38  26  64 SW7       29.56R WCI  32
WAUTOMA        FAIR      37  25  61 SW9       29.59R WCI  30
WISC RAPIDS    FAIR      35  23  61 SW7       29.57R WCI  29
CAMP DOUGLAS   FAIR      40  28  61 W8        29.59R WCI  35
$$

WIZ011>013-019>022-031-037>040-048>050-200200-
NORTHEAST WISCONSIN

CITY           SKY/WX    TMP DP  RH WIND       PRES   REMARKS
ANTIGO         FAIR      32  24  73 W9        29.50R WCI  24
SHAWANO        FAIR      37  27  66 SW3       29.52S
OCONTO         FAIR      35  27  73 SW7       29.51F WCI  29
STURGEON BAY   FAIR      36  26  67 SW15      29.52F WCI  27
GREEN BAY      FAIR      36  26  67 SW12      29.55S WCI  28
MANITOWOC      FAIR      39  26  59 SW13      29.57R WCI  31
APPLETON       MOCLDY    34  25  69 SW12      29.55R WCI  25
CLINTONVILLE   FAIR      34  27  75 SW8       29.53S WCI  27
OSHKOSH        FAIR      36  27  69 SW12      29.57R WCI  28
$$

WIZ032>034-041-042-053>061-200200-
SOUTHWEST WISCONSIN

CITY           SKY/WX    TMP DP  RH WIND       PRES   REMARKS
LA CROSSE      FAIR      39  29  67 CALM      29.61R
SPARTA         FAIR      40  29  65 SW6       29.60R
VIROQUA        FAIR      39  30  71 SW14      29.61R WCI  30
BOSCOBEL       FAIR      41  28  60 SW7       29.65R
PRAIRIE DU CHI FAIR      41  26  56 S3        29.64R
PLATTEVILLE    FAIR      38  30  74 SW16      29.65S WCI  28
$$

WIZ056-057-062-063-064-067-068-200200-
SOUTH CENTRAL WISCONSIN

CITY           SKY/WX    TMP DP  RH WIND       PRES   REMARKS
REEDSBURG      FAIR      38  27  64 SW9       29.61R WCI  32
BARABOO/DELLS  FAIR      38  27  64 SW13      29.60R WCI  30
LONE ROCK      FAIR      39  28  64 SW6       29.65R WCI  35
MINERAL POINT  FAIR      37  32  81 SW16      29.63S WCI  28
MADISON        MOCLDY    38  27  64 SW8G22    29.64R WCI  32
MIDDLETON      FAIR      40  28  63 SW18G26   29.61S WCI  30
WATERTOWN      FAIR      37  29  72 SW12G22   29.62R WCI  29
MONROE         FAIR      36  28  75 SW26G32   29.63S WCI  23
JANESVILLE     PTCLDY    39  28  65 SW17G24   29.66S WCI  30
$$

WIZ051-052-058>065-066-070>072-200200-
SOUTHEAST WISCONSIN

CITY           SKY/WX    TMP DP  RH WIND       PRES   REMARKS
MILWAUKEE      MOCLDY    39  28  64 SW24G41   29.62S WCI  28
WAUKESHA       CLEAR     36  27  69 SW16      29.63S WCI  26
MILWAUKEE/TIMM CLEAR     39  25  56 SW16G32   29.63S WCI  30
RACINE         FAIR      39  27  62 SW21G33   29.66F WCI  29
BURLINGTON     FAIR      38  26  64 SW18G26   29.66S WCI  28
KENOSHA        FAIR      40  26  57 SW21G32   29.65F WCI  30
FOND DU LAC    FAIR      37  26  64 SW15G24   29.59R WCI  28
SHEBOYGAN      FAIR      39  27  62 SW21G28   29.58R WCI  29
WEST BEND      FAIR      37  27  65 SW14G26   29.58S WCI  29
JUNEAU         FAIR      35  28  74 SW18      29.61S WCI  24
$$

LSZ147-162-200200-
LAKE SUPERIOR

STATION/POSITION TIME  TEMP    WIND        PRES    WAVE
                       AIR SEA DIR/SP/G            HT/PER
                 (UTC) (F)     (DEG/KT/KT) (MB)    (FT/S)
DEVILS ISLAND    0000   39     220/ 15/ 16  996.2R
SAXON HARBOR     0030   42     200/ 12/ 17  997.0S
$$

LMZ867-665-643>646-200200-
LAKE MICHIGAN

STATION/POSITION TIME  TEMP    WIND        PRES    WAVE
                       AIR SEA DIR/SP/G            HT/PER
                 (UTC) (F)     (DEG/KT/KT) (MB)    (FT/S)
NORTHPORT PIER   0033   35     150/  8/ 28  999.3F
KEWAUNEE LAKESHO 0030   35     190/  5/  6 1000.1R
SHEBOYGAN LAKESH 0000   39     210/ 20/ 22 1001.0F
PORT WASHINGTON  0040   40     230/ 10/ 17 1003.4S
MILWAUKEE LAKESH 0030   39     220/ 23/ 26   N/A
KENOSHA   LAKESH 0000   40     210/ 17/ 23 1005.1
$$

TC  - TEMPERATURE IN CELSIUS
VSB - VISIBILITY IN STATUTE MILES
WCI - WIND CHILL INDEX
HX  - HEAT INDEX





USA.gov is the U.S. government's official web portal to all federal, state and local government web resources and services.